{"data":{"norad_id":62172,"intl_designator":"2024-225K","name":"STARLINK-32407","alt_names":[],"object_type":"PAYLOAD","status":"ACTIVE","operator":null,"country":"US","launch_date":"2024-11-30","launch_site_code":"AFWTR","launch_vehicle":null,"mission":null,"orbit_class":"UNKNOWN","rcs_meters":null,"size_class":null,"mass_kg":null,"dimensions":null,"purposes":["comms"],"wikipedia_slug":null,"has_3d_model":false,"image_url":null,"decayed_at":null,"tle_current":{"epoch":"2026-05-24T21:54:31.397760Z","epoch_age_seconds":89531,"freshness":"FRESH","line1":"1 62172U 24225K   26144.91286340  .00002526  00000+0  21937-3 0  9992","line2":"2 62172  70.0019 332.2207 0002586 263.7579  96.3286 14.98334901 81292","mean_motion":14.98334901,"eccentricity":0.0002586,"inclination_deg":70.0019,"raan_deg":332.2207,"arg_perigee_deg":263.7579,"mean_anomaly_deg":96.3286,"bstar":0.00021937,"rev_number":8129,"period_min":96.106684763128,"perigee_km":570.24341908523,"apogee_km":573.8380510098,"semimajor_km":6950.1777350475,"source":"CELESTRAK","updated_at":"2026-05-25T13:38:19.602354Z"}}}